Tracking 20241 objects as of 28-Jan-2020
HD Live streaming from Space Station
objects crossing your sky now

AQT-D

Track AQT-D now!
10-day predictions
AQT-D is classified as:


NORAD ID: 44791
Int'l Code: 1998-067QU
Perigee: 418.6 km
Apogee: 423.0 km
Inclination: 51.6 °
Period: 92.8 minutes
Semi major axis: 6791 km
RCS: Unknown
Launch date: November 20, 1998
Source: Japan (JPN)
Launch site: TYURATAM MISSILE AND SPACE COMPLEX (TTMTR)

Uplink (MHz):
Downlink (MHz):
Beacon (MHz):
Mode:
Call sign:
Status: Unknown

aabbcc
Your satellite tracking list
Your tracking list is empty




NASA's NSSDC Master Catalog

Two Line Element Set (TLE):
1 44791U 98067QW  20027.82949960 -.00000363  00000-0  16608-5 0  9992
2 44791  51.6444 327.3389 0003207 174.5593 185.5432 15.51057486 10632
Source of the keplerian elements: AFSPC